ZHONGXING-2E

Last updated on Wed Sep 17 2025 00:02:50 GMT+0000 (Coordinated Universal Time)

1 49062U 21071A 25259.64784227 -.00000311 00000+0 00000+0 0 9999 2 49062 0.0250 80.2392 0001778 132.4265 114.4473 1.00272070 15290
UTC large
Height (km)
Speed (km/s)
/
Latitude / Longitude
Inclination (degrees)
Orbital Period (minutes)
Azimuth
Elevation
Range (km)
Doppler Factor

Next 0 passes for location: London (51.5072 / 0.1276)

Sorry there are no passes over London.